TimeAKDT,TemperatureF,Dew PointF,Humidity,Sea Level PressureIn,VisibilityMPH,Wind Direction,Wind SpeedMPH,Gust SpeedMPH,PrecipitationIn,Events,Conditions,WindDirDegrees,DateUTC
12:53 AM,12.0,8.1,84,30.25,10.0,Calm,Calm,-,N/A,,Clear,0,2011-11-03 08:53:00
1:53 AM,12.9,7.0,77,30.24,10.0,Calm,Calm,-,N/A,,Clear,0,2011-11-03 09:53:00
2:53 AM,15.1,9.0,77,30.22,10.0,Calm,Calm,-,N/A,,Clear,0,2011-11-03 10:53:00
3:53 AM,17.1,10.0,74,30.19,10.0,ENE,4.6,-,N/A,,Clear,60,2011-11-03 11:53:00
4:53 AM,18.0,10.0,71,30.15,10.0,East,4.6,-,N/A,,Clear,80,2011-11-03 12:53:00
5:53 AM,18.0,12.0,78,30.12,10.0,NE,4.6,-,N/A,,Clear,40,2011-11-03 13:53:00
6:53 AM,19.9,14.0,78,30.08,10.0,North,3.5,-,N/A,,Partly Cloudy,10,2011-11-03 14:53:00
7:53 AM,21.0,14.0,74,30.04,10.0,NNE,5.8,-,N/A,,Overcast,20,2011-11-03 15:53:00
8:53 AM,21.0,14.0,74,30.00,10.0,NNE,4.6,-,N/A,,Overcast,30,2011-11-03 16:53:00
9:53 AM,21.9,14.0,72,29.96,10.0,NE,3.5,-,N/A,,Overcast,40,2011-11-03 17:53:00
10:53 AM,24.1,14.0,65,29.92,10.0,NE,8.1,-,N/A,,Overcast,40,2011-11-03 18:53:00
11:12 AM,24.8,14.0,64,29.89,8.0,NNE,10.4,-,0.00,Snow,Light Snow,30,2011-11-03 19:12:00
11:24 AM,24.8,15.8,69,29.89,2.0,NNE,11.5,-,0.00,Snow,Light Snow,20,2011-11-03 19:24:00
11:41 AM,23.0,19.4,86,29.88,2.0,NE,10.4,-,0.00,Snow,Light Snow,40,2011-11-03 19:41:00
11:51 AM,23.0,21.2,93,29.86,0.5,NE,10.4,-,0.00,Fog-Snow,Snow,40,2011-11-03 19:51:00
11:53 AM,23.0,21.0,92,29.88,0.2,NE,11.5,-,0.00,Fog-Snow,Snow,40,2011-11-03 19:53:00
12:12 PM,21.2,21.2,100,29.84,0.5,NNE,10.4,-,0.01,Fog-Snow,Snow,20,2011-11-03 20:12:00
12:27 PM,23.0,21.2,93,29.83,0.5,NNE,10.4,-,0.01,Fog-Snow,Snow,20,2011-11-03 20:27:00
12:37 PM,23.0,21.2,93,29.82,0.2,NNE,11.5,-,0.02,Fog-Snow,Heavy Snow,20,2011-11-03 20:37:00
12:49 PM,23.0,21.2,93,29.81,0.5,NNE,11.5,-,0.02,Fog-Snow,Snow,30,2011-11-03 20:49:00
12:53 PM,23.0,21.9,96,29.81,0.5,NNE,11.5,-,0.02,Fog-Snow,Snow,30,2011-11-03 20:53:00
1:42 PM,24.8,23.0,93,29.76,1.0,NNE,12.7,-,0.00,Snow,Light Snow,20,2011-11-03 21:42:00
1:53 PM,24.1,23.0,96,29.75,1.0,NNE,12.7,-,0.00,Snow,Light Snow,30,2011-11-03 21:53:00
2:16 PM,24.8,23.0,93,29.71,0.8,NNE,12.7,-,0.00,Snow,Light Snow,30,2011-11-03 22:16:00
2:28 PM,24.8,24.8,100,29.68,0.5,NE,15.0,-,0.01,Fog-Snow,Snow,40,2011-11-03 22:28:00
2:39 PM,24.8,24.8,100,29.66,0.8,NNE,15.0,-,0.01,Snow,Light Snow,30,2011-11-03 22:39:00
2:46 PM,24.8,24.8,100,29.65,1.5,NE,16.1,-,0.01,Snow,Light Snow,40,2011-11-03 22:46:00
2:53 PM,25.0,24.1,96,29.65,2.5,NE,17.3,-,0.01,Snow,Light Snow,40,2011-11-03 22:53:00
2:59 PM,24.8,23.0,93,29.62,3.0,NE,15.0,-,0.00,Snow,Light Snow,40,2011-11-03 22:59:00
3:53 PM,27.0,25.0,92,29.57,10.0,NNE,12.7,-,0.00,,Overcast,30,2011-11-03 23:53:00
4:42 PM,28.4,26.6,93,29.54,2.5,North,11.5,-,0.00,Snow,Light Snow,10,2011-11-04 00:42:00
4:53 PM,28.0,27.0,96,29.54,1.0,NNE,11.5,-,0.00,Snow,Light Snow,20,2011-11-04 00:53:00
5:00 PM,28.4,26.6,93,29.52,0.5,NNE,11.5,-,0.00,Fog-Snow,Snow,30,2011-11-04 01:00:00
5:10 PM,28.4,28.4,100,29.51,0.5,NNE,10.4,-,0.00,Fog-Snow,Snow,30,2011-11-04 01:10:00
5:53 PM,30.0,28.9,96,29.47,0.5,NE,9.2,-,0.03,Fog-Snow,Snow,40,2011-11-04 01:53:00
6:09 PM,30.2,30.2,100,29.44,1.2,NNE,9.2,-,0.01,Snow,Light Snow,30,2011-11-04 02:09:00
6:23 PM,30.2,30.2,100,29.43,1.8,NE,9.2,-,0.01,Snow,Light Snow,40,2011-11-04 02:23:00
6:32 PM,32.0,30.2,93,29.42,2.5,NE,9.2,-,0.02,Snow,Light Snow,50,2011-11-04 02:32:00
6:45 PM,32.0,32.0,100,29.42,3.0,ENE,9.2,-,0.02,Snow,Light Snow,60,2011-11-04 02:45:00
6:53 PM,32.0,32.0,100,29.42,4.0,NE,10.4,-,0.02,Snow,Light Snow,50,2011-11-04 02:53:00
7:30 PM,32.0,30.2,93,29.38,2.0,NE,11.5,-,0.00,Snow,Light Snow,40,2011-11-04 03:30:00
7:53 PM,32.0,30.9,96,29.37,2.5,NE,13.8,-,0.00,Snow,Light Snow,40,2011-11-04 03:53:00
8:01 PM,32.0,30.2,93,29.35,3.0,NE,15.0,-,0.00,Snow,Light Snow,40,2011-11-04 04:01:00
8:09 PM,32.0,30.2,93,29.34,5.0,NNE,12.7,-,0.00,Snow,Light Snow,30,2011-11-04 04:09:00
8:53 PM,30.0,28.9,96,29.33,10.0,NNE,15.0,-,0.00,,Overcast,20,2011-11-04 04:53:00
9:53 PM,30.0,28.0,92,29.29,10.0,North,16.1,-,N/A,,Overcast,360,2011-11-04 05:53:00
10:53 PM,30.9,28.0,89,29.26,10.0,North,19.6,-,N/A,,Overcast,360,2011-11-04 06:53:00
11:53 PM,30.0,28.0,92,29.25,9.0,North,23.0,29.9,0.01,,Overcast,10,2011-11-04 07:53:00